BEIDOU-3 M22

Last updated on Jan. 16, 2021, 6:29 a.m. UTC

1 44794U 19078B   21015.10173398 -.00000101  00000-0  10000-3 0  9991
2 44794  55.0381   8.4523 0005028 337.3085  80.1047  1.86232668  7793
UTC
Height (km)
Latitude
Longitude
Inclination
Orbital Period
UTC large
Height (km)
Speed (km/s)
/
Latitude / Longitude
Inclination (degrees)
Orbital Period (minutes)
Azimuth
Elevation
Range (km)
Doppler Factor
iOS Compass Heading
iOS Angle

Next 30 passes for location: Hong Kong

Rise time Rise Azimuth (degrees) Set time Set Azimuth (degrees) Duration Max altitude (degrees)

No matching passes for this satellites